Location: ????????
(55.0559°N, 39.1270°E)
Time: 07:53:51
(UTC+00:00)

Cosmos 676 Rocket - Pass Details

Date: 15 November 2025
Orbit: 750 x 778 km, 74.0° (Epoch: 14 December)

Event Time Altitude Azimuth Distance (km) Brightness Sun altitude
Exits shadow 01:54:34 58° 339° (NNW) 891 4.1 -25.6°
Maximum altitude 01:55:38 86° 61° (ENE) 773 3.9 -25.4°
Drops below altitude 10° 02:00:50 10° 153° (SSE) 2,285 6.7 -24.7°
Sets 02:03:11 0° 153° (SSE) 3,203 7.5 -24.3°
